[[{"header":{"parameterUnit":"m.s-1","parameterCategory":1,"la1":30.2991,"la2":30.254,"lo1":-89.0895,"lo2":-89.0444,"dy":0.0017,"dx":0.0017,"nx":28,"ny":28,"refTime":"2023-07-17T21:00:00:Z","depth":0,"parameterNumber":2,"parameterNumberName":"U-component_of_WINDS"},"data":[0,0,0,0,0,0,0,0,0,0,0,0,0,0,0,0,0,0,0,0,0,0,0,0,0,0,0,0,0,0,0,0,0,0,0,0,0,0,0,0,0,0,0,0,0,0,0,0,0,0,0,0,0,0,0,0,0,0,2.1301,2.1302,0,2.1437,2.1438,2.144,2.1445,2.1444,2.1442,2.1441,2.1581,2.1586,2.1591,0,0,0,0,0,0,0,0,0,0,0,0,0,2.1046,2.1051,2.1301,2.1303,2.1304,2.1437,2.1438,2.144,2.1446,2.1444,2.1442,2.144,2.1579,2.1585,2.1592,0,0,0,0,0,0,0,0,0,0,0,0,0,2.1167,2.1052,2.1301,2.1323,2.1326,2.1436,2.1438,2.1441,2.1446,2.1444,2.1441,2.1439,2.1577,2.1585,2.1592,2.1689,0,0,2.1616,2.162,0,0,0,0,0,0,0,0,2.116,2.1176,2.1318,2.1322,2.1326,2.1422,2.14,2.1524,2.1447,2.1401,2.1441,2.1438,2.153,2.1541,2.1572,2.1696,2.1702,2.1617,2.1622,2.1625,2.1627,0,0,0,0,0,0,0,2.1151,2.117,2.1355,2.132,2.1325,2.1326,2.1341,2.1423,2.1477,2.1405,2.1405,2.1421,2.1531,2.1565,2.1576,2.1704,2.1617,2.1624,2.1629,2.1632,2.1913,2.1916,0,0,0,0,0,0,2.1139,2.1163,2.135,2.1359,2.1235,2.1333,2.1349,2.1393,2.1476,2.1487,2.1423,2.1421,2.1552,2.1566,2.1581,2.1699,2.1625,2.1633,2.1637,2.191,2.1914,2.1917,0,0,0,0,0,0,2.1133,2.1155,2.1345,2.1261,2.1285,2.134,2.1389,2.1397,2.143,2.149,2.15,2.1447,2.1551,2.157,2.1662,2.1704,2.1636,2.1643,2.1907,2.1911,2.1915,2.1937,0,0,0,0,0,0,2.1126,2.1153,2.1191,2.1262,2.129,2.1424,2.1392,2.1402,2.1444,2.1442,2.1516,2.1525,2.1551,2.165,2.167,2.1714,2.1649,2.1904,2.1909,2.1914,2.1933,2.1941,2.1949,0,0,0,0,0,2.1117,2.1192,2.1193,2.1215,2.1338,2.1427,2.1443,2.147,2.1447,2.1485,2.1524,2.1523,2.1696,2.166,2.1682,2.1728,2.1901,2.1907,2.1913,2.1929,2.194,2.1948,0,0,0,0,0,0,2.1125,2.1202,2.1203,2.1304,2.1359,2.1427,2.1476,2.148,2.1543,2.1539,2.157,2.1586,2.1678,2.1713,2.1671,2.1826,2.1796,2.1807,2.18,2.1811,2.1819,2.1808,2.1656,0,0,0,0,0,2.1138,2.1204,2.1267,2.135,2.1377,2.1422,2.1462,2.1478,2.1536,2.1559,2.1604,2.166,2.1727,2.1771,2.1836,2.1937,2.1953,2.198,2.1988,2.1995,2.2004,2.2059,2.2072,2.1937,2.1937,2.1937,0,0,2.1167,2.1217,2.1257,2.1353,2.1397,2.1464,2.1442,2.1514,2.1563,2.157,2.166,2.1695,2.176,2.1857,2.1902,2.1888,2.2044,2.2002,2.2007,2.2013,2.2067,2.2079,2.2091,2.1941,2.194,2.194,0,0,2.1253,2.1298,2.1371,2.1416,2.1483,2.1512,2.1529,2.1597,2.162,2.1711,2.1717,2.1777,2.1892,2.1937,2.1976,2.2078,2.2079,2.2098,2.214,2.2193,2.2204,2.2213,2.2249,2.2262,2.2107,2.2107,2.2107,0,2.1281,2.1382,2.1409,2.148,2.1522,2.1531,2.1605,2.1647,2.1731,2.176,2.1744,2.1887,2.1932,2.2039,2.2064,2.2095,2.2115,2.209,2.22,2.221,2.2219,2.2254,2.2267,2.2109,2.2109,2.2108,2.2108,0,2.1411,2.1481,2.1532,2.1613,2.1661,2.1734,2.1771,2.1816,2.1828,2.1858,2.195,2.2003,2.2079,2.2105,2.2118,2.2215,2.2204,2.2193,2.2164,2.2233,2.2266,2.228,2.2111,2.2111,2.211,2.211,0,0,2.1508,2.1602,2.162,2.1656,2.173,2.1785,2.1857,2.1931,2.1968,2.2026,2.2087,2.2184,2.2174,2.2218,2.2235,2.2282,2.2359,2.2266,2.2268,2.2281,2.2468,2.2475,2.249,2.236,2.2363,2.2365,2.2462,0,2.1602,2.1731,2.1757,2.1869,2.1933,2.1941,2.2004,2.2056,2.2087,2.2145,2.2179,2.2246,2.2229,2.2255,2.2302,2.2339,2.2397,2.2333,2.2417,2.242,2.2401,2.2507,2.2516,2.2605,2.2475,2.2477,2.2479,0,2.1729,2.1789,2.1908,2.1972,2.2,2.2056,2.2125,2.2181,2.224,2.2258,2.2306,2.2318,2.2393,2.236,2.2464,2.242,2.2456,2.2479,2.2483,2.2492,2.2454,2.2519,2.2634,2.2648,2.25,2.2498,2.2497,0,2.1787,2.1898,2.1982,2.2013,2.2091,2.213,2.2164,2.222,2.2262,2.2322,2.2349,2.2417,2.2455,2.2507,2.2537,2.251,2.2638,2.2607,2.2656,2.2655,2.2683,2.2681,2.2805,2.2706,2.2706,2.2706,2.2705,0,2.1889,2.1961,2.2009,2.2061,2.2142,2.217,2.2249,2.2283,2.2333,2.2391,2.2402,2.2457,2.2493,2.2553,2.2577,2.2659,2.2676,2.2693,2.2698,2.2692,2.269,2.2716,2.2711,2.2709,2.2708,2.2708,2.2707,0,2.1968,2.2003,2.2096,2.2161,2.2179,2.2235,2.229,2.2341,2.2371,2.2445,2.2464,2.2511,2.2581,2.2616,2.2705,2.272,2.2813,2.2815,2.2793,2.2795,2.2842,2.2837,2.2988,2.3009,2.2895,2.2896,2.2897,0,2.2031,2.2086,2.2157,2.2197,2.2231,2.2295,2.2338,2.2368,2.2412,2.2482,2.2524,2.2595,2.2654,2.2766,2.2808,2.2876,2.2879,2.2927,2.2889,2.2881,2.2879,2.2876,2.2881,2.2934,2.2935,2.2936,2.2937,0,2.2139,2.2153,2.2214,2.2281,2.2331,2.2386,2.2439,2.2471,2.2509,2.2558,2.263,2.2675,2.2765,2.2835,2.2905,2.294,2.2945,2.2948,2.2963,2.2957,2.2942,2.295,2.2812,2.2945,2.2944,2.2943,2.2943,2.2943,2.2212,2.2261,2.2318,2.2385,2.2428,2.2477,2.2528,2.2563,2.2624,2.2699,2.2713,2.2789,2.2845,2.294,2.2977,2.3037,2.3026,2.3048,2.3053,2.3058,2.306,2.2932,2.305,2.305,2.3049,2.3049,2.3049,0,2.232,2.2357,2.2418,2.2492,2.2545,2.2544,2.2602,2.2646,2.2713,2.2765,2.2822,2.2905,2.2973,2.3019,2.3088,2.3128,2.3131,2.3145,2.3142,2.315,2.3066,2.3046,2.314,2.314,2.314,2.314,2.314,2.314,2.2383,2.2465,2.2486,2.259,2.2627,2.2701,2.2735,2.278,2.2821,2.2913,2.2969,2.2999,2.3049,2.3121,2.3183,2.3195,2.322,2.3233,2.3245,2.3166,2.3156,2.3147,2.3128,2.3238,2.3238,2.3324,2.3325,2.3325]},{"header":{"parameterUnit":"m.s-1","parameterCategory":1,"la1":30.2991,"la2":30.254,"lo1":-89.0895,"lo2":-89.0444,"dy":0.0017,"dx":0.0017,"nx":28,"ny":28,"refTime":"2023-07-17T21:00:00:Z","depth":0,"parameterNumber":3,"parameterNumberName":"V-component_of_WINDS"},"data":[0,0,0,0,0,0,0,0,0,0,0,0,0,0,0,0,0,0,0,0,0,0,0,0,0,0,0,0,0,0,0,0,0,0,0,0,0,0,0,0,0,0,0,0,0,0,0,0,0,0,0,0,0,0,0,0,0,0,4.5423,4.5424,0,4.5493,4.5494,4.5495,4.5455,4.5453,4.5451,4.5449,4.5514,4.5518,4.5521,0,0,0,0,0,0,0,0,0,0,0,0,0,4.5248,4.5252,4.5423,4.5424,4.5425,4.5493,4.5494,4.5495,4.5455,4.5453,4.545,4.5448,4.5513,4.5517,4.5521,0,0,0,0,0,0,0,0,0,0,0,0,0,4.5322,4.5253,4.5423,4.5414,4.5414,4.5493,4.5494,4.5495,4.5456,4.5453,4.545,4.5447,4.5512,4.5517,4.5522,4.5613,0,0,4.5538,4.554,0,0,0,0,0,0,0,0,4.5318,4.5328,4.5414,4.5414,4.5414,4.5463,4.5456,4.5534,4.5456,4.5439,4.5449,4.5446,4.5499,4.5505,4.5524,4.5616,4.5619,4.5539,4.5542,4.5544,4.5546,0,0,0,0,0,0,0,4.5313,4.5325,4.5451,4.5415,4.5416,4.5403,4.5411,4.5471,4.5484,4.5441,4.5438,4.5447,4.5498,4.5519,4.5526,4.562,4.5539,4.5543,4.5546,4.5549,4.5787,4.579,0,0,0,0,0,0,4.5309,4.5321,4.5449,4.5453,4.5358,4.5409,4.5417,4.545,4.5484,4.5486,4.545,4.5445,4.5512,4.5519,4.5528,4.5635,4.5544,4.5549,4.5552,4.5784,4.5788,4.5791,0,0,0,0,0,0,4.5306,4.5321,4.5446,4.5386,4.5401,4.5415,4.5452,4.5453,4.5474,4.5491,4.5492,4.5469,4.551,4.552,4.5592,4.5637,4.5551,4.5556,4.578,4.5785,4.579,4.5852,0,0,0,0,0,0,4.5301,4.532,4.5356,4.5388,4.5405,4.5511,4.5455,4.5456,4.5484,4.5479,4.5509,4.5511,4.5508,4.5584,4.5597,4.5643,4.556,4.5776,4.5783,4.5788,4.5846,4.5859,4.5869,0,0,0,0,0,4.5295,4.537,4.5358,4.5374,4.5451,4.5514,4.5524,4.5521,4.5488,4.5523,4.5534,4.551,4.563,4.5592,4.5606,4.5654,4.5774,4.5781,4.5788,4.5841,4.5856,4.5869,0,0,0,0,0,0,4.5341,4.5374,4.5361,4.545,4.548,4.5507,4.5552,4.5537,4.5575,4.5568,4.556,4.5568,4.5642,4.5655,4.5612,4.5743,4.5696,4.5707,4.5732,4.5747,4.5758,4.5753,4.5565,0,0,0,0,0,4.5362,4.5414,4.5438,4.5513,4.5529,4.5538,4.5566,4.5561,4.5591,4.5602,4.5618,4.5646,4.569,4.5719,4.576,4.5848,4.5853,4.5888,4.5899,4.5908,4.5917,4.5963,4.5978,4.5815,4.5815,4.5815,0,0,4.5405,4.543,4.5462,4.5523,4.5546,4.5597,4.5549,4.5605,4.5642,4.561,4.568,4.5692,4.5722,4.5802,4.5838,4.5815,4.5963,4.5917,4.5925,4.5928,4.5972,4.5987,4.6001,4.582,4.5819,4.5818,0,0,4.551,4.5534,4.5599,4.5623,4.5659,4.5665,4.568,4.571,4.5718,4.5788,4.5765,4.5807,4.5883,4.5906,4.5927,4.604,4.6019,4.6053,4.6113,4.6158,4.617,4.6182,4.6221,4.6235,4.6062,4.6062,4.6062,0,4.5558,4.5637,4.5634,4.5692,4.5719,4.5695,4.5759,4.5782,4.5828,4.5846,4.582,4.5915,4.5934,4.6018,4.6046,4.6064,4.608,4.6049,4.6169,4.6181,4.6191,4.6228,4.6243,4.6066,4.6065,4.6065,4.6065,0,4.5694,4.5748,4.5796,4.5844,4.5876,4.5936,4.5941,4.5973,4.5965,4.5973,4.6043,4.6065,4.611,4.6129,4.6121,4.6212,4.6197,4.6171,4.6123,4.6211,4.6245,4.626,4.6071,4.607,4.6069,4.6068,0,0,4.583,4.5876,4.5893,4.5914,4.5952,4.5992,4.6051,4.6097,4.6124,4.6157,4.6204,4.6269,4.6245,4.6269,4.6263,4.6303,4.6389,4.6271,4.6271,4.6291,4.6489,4.6509,4.6525,4.6376,4.6378,4.6381,4.6486,0,4.5936,4.6042,4.6041,4.6137,4.6186,4.6163,4.6214,4.6241,4.6249,4.629,4.6298,4.6344,4.6309,4.6323,4.6361,4.6371,4.6428,4.6363,4.6418,4.642,4.6411,4.6544,4.6564,4.6663,4.65,4.6502,4.6504,0,4.6074,4.6114,4.6216,4.6246,4.6266,4.6312,4.6354,4.6394,4.6423,4.6426,4.6453,4.6441,4.6498,4.645,4.6527,4.6483,4.6505,4.6513,4.6516,4.6521,4.6467,4.6551,4.6695,4.6709,4.6525,4.6524,4.6522,0,4.6163,4.6241,4.6312,4.6331,4.6367,4.64,4.6416,4.6443,4.647,4.6506,4.6523,4.6564,4.6586,4.6617,4.6615,4.658,4.6693,4.6645,4.6695,4.6695,4.672,4.6718,4.6868,4.6735,4.6735,4.6735,4.6734,0,4.6281,4.6344,4.6352,4.6396,4.6465,4.6462,4.653,4.6542,4.6566,4.661,4.6592,4.6633,4.6628,4.6669,4.6667,4.6731,4.6741,4.6744,4.6742,4.6745,4.6745,4.6759,4.6752,4.6739,4.6738,4.6737,4.6736,0,4.6391,4.6399,4.6475,4.6504,4.6513,4.6562,4.6586,4.6626,4.6632,4.6688,4.6701,4.671,4.6757,4.6759,4.6812,4.681,4.6888,4.6879,4.6879,4.6877,4.6927,4.6922,4.7091,4.7113,4.6966,4.6968,4.6969,0,4.6466,4.6515,4.6549,4.6579,4.6597,4.6645,4.6673,4.6671,4.6701,4.6738,4.6773,4.6818,4.6855,4.693,4.694,4.698,4.6972,4.7028,4.6978,4.6979,4.6972,4.6969,4.6973,4.7038,4.704,4.7041,4.7042,0,4.6598,4.66,4.6643,4.6687,4.6722,4.6756,4.6788,4.6812,4.6814,4.6848,4.6897,4.6925,4.698,4.7024,4.7063,4.7077,4.706,4.7058,4.7072,4.7075,4.7072,4.7074,4.6905,4.7054,4.7053,4.7052,4.7051,4.7051,4.6692,4.6734,4.6765,4.6813,4.6837,4.6867,4.6907,4.6919,4.696,4.7006,4.7002,4.7056,4.7082,4.7133,4.715,4.719,4.717,4.719,4.7195,4.72,4.7205,4.7067,4.7197,4.7197,4.7197,4.7196,4.7196,0,4.6823,4.6842,4.6886,4.6932,4.697,4.6952,4.6986,4.7017,4.7066,4.7093,4.713,4.7185,4.7228,4.7242,4.7283,4.7312,4.7305,4.7323,4.7321,4.7324,4.7221,4.7205,4.7328,4.7328,4.7328,4.7328,4.7328,4.7328,4.6895,4.6965,4.697,4.705,4.7067,4.7122,4.7143,4.7169,4.7191,4.7254,4.7291,4.73,4.7322,4.7364,4.7402,4.7405,4.742,4.7442,4.7441,4.7344,4.7331,4.7318,4.7303,4.7445,4.7445,4.754,4.7541,4.7542]}]]